Flag for Canada Weather past 2 weeks in Grande Prairie, Alberta, Canada

Now
54 °F

Passing clouds.


Feels Like: 52 °F
Forecast: 49 / 76 °F
Wind: 6 mph from Southwest

Location: Grande Prairie

Current Time: May 27, 2015 at 2:17:09 AM

Latest Report: May 27, 2015 at 1:00 AM


Visibility: 20 mi

Pressure: 29.99 "Hg

Humidity: 72%

Dew point: 45 °F

Location of Grande PrairieLocation

Historic Weather in Grande Prairie — Graph

°F

Grande Prairie temperature yesterday

Maximum temperature yesterday: 77 °F (at 5:00 PM)
Minimum temperature yesterday: 48 °F (at 5:00 AM)
Average temperature yesterday: 63 °F

Past Weeks' High & Low Weather Summary

 TemperatureHumidityPressure
High81 °F (May 23, 3:00 PM)87% (May 26, 5:00 AM)30.40 "Hg (May 26, 5:00 AM)
Low28 °F (May 17, 5:00 AM)12% (May 12, 6:00 PM)29.80 "Hg (May 15, 6:00 PM)
Average58 °F42%30.04 "Hg
* Reported May 12 1:00 AM — May 27 1:00 AM, Grande Prairie, Weather by CustomWeather, © 2015

Note: Actual official high and low records may vary slightly from our data, if they occured in-between our weather recording intervals... More about our weather records

Advertising

Grande Prairie weather history for previous 24 hours

 ConditionsComfort  
Time TempWeatherWind HumidityBarometerVisibility
1:00 AM
Wed, May 27
54 °FPassing clouds.6 mph72%29.99 "Hg20 mi
12:00 AM57 °FPartly cloudy.No wind63%30.00 "Hg20 mi
11:00 PM
Tue, May 26
61 °FBroken clouds.7 mph55%29.99 "Hg20 mi
10:00 PM61 °FPartly sunny.5 mph59%29.99 "Hg20 mi
9:00 PM63 °FPartly sunny.6 mph56%30.00 "Hg20 mi
8:00 PM68 °FBroken clouds.15 mph40%30.00 "Hg20 mi
7:55 PM70 °FBroken clouds.3 mph38%30.00 "Hg20 mi
7:00 PM73 °FScattered clouds.8 mph29%29.98 "Hg20 mi
6:00 PM75 °FScattered clouds.2 mph31%29.99 "Hg15 mi
5:00 PM77 °FPassing clouds.13 mph30%29.99 "Hg15 mi
4:00 PM75 °FPassing clouds.3 mph39%30.01 "Hg15 mi
3:00 PM73 °FPassing clouds.8 mph38%30.02 "Hg15 mi
2:00 PM72 °FPassing clouds.6 mph38%30.05 "Hg15 mi
1:00 PM72 °FPassing clouds.2 mph38%30.06 "Hg15 mi
12:00 PM68 °FScattered clouds.5 mph40%30.07 "Hg15 mi
11:00 AM64 °FScattered clouds.3 mph52%30.08 "Hg15 mi
10:00 AM61 °FPartly sunny.3 mph59%30.08 "Hg15 mi
9:00 AM57 °FPartly sunny.No wind77%30.07 "Hg15 mi
8:00 AM54 °FPartly sunny.3 mph77%30.06 "Hg15 mi
7:00 AM52 °FPartly sunny.No wind82%30.06 "Hg20 mi
6:00 AM48 °FPassing clouds.6 mph87%30.05 "Hg20 mi
5:00 AM48 °FPassing clouds.3 mph87%30.03 "Hg20 mi
4:00 AM50 °FPassing clouds.7 mph82%30.01 "Hg25 mi
3:00 AM54 °FPassing clouds.10 mph77%29.99 "Hg25 mi
2:00 AM54 °FPassing clouds.9 mph77%29.98 "Hg25 mi
Weather by CustomWeather, © 2015

See weather overviewHow to use our weather pages